Weather in Segot

Russia / Ivanovo Oblast     57°05′06″N   43°00′51″E
temp.,
°C
wind,
m/s
gust,
m/s
humid.,
%
clouds,
%
prec.,
mm/h
press.,
hPa
HPBL,
m
10 august, wed
wed1000:00+15nnw369899 0.0 1021227
03:00+15nnw3598100 0.0 1020260
06:00+16nnw3492100 0.0 1021250
09:00+18n3583100 0.1 1022419
12:00+19n3473100 0.0 1022542
15:00+22n3446100 0.0 10211392
18:00+20n595999 0.0 1021395
21:00+15nnw35784 0.0 102287
11 august, thu
thu1100:00+14n36800 0.0 1023100
03:00+13n238668 0.0 102442
06:00+13nnw23840 0.0 1025121
09:00+18n34660 0.0 1025511
12:00+21nne33540 0.0 10251121
15:00+22ne23490 0.0 10241242
18:00+21ese11560 0.0 102365
21:00+16wsw22680 0.0 102411
12 august, fri
fri1200:00+15w236921 0.0 102419
03:00+14w3470100 0.0 102450
06:00+14w356968 0.0 102498
09:00+20w45545 0.0 1024373
12:00+23w454498 0.0 10231148
15:00+25w56417 0.0 10221309
18:00+23wsw355411 0.0 1021114
21:00+18w45655 0.0 102247
13 august, sat
sat1300:00+17wnw46665 0.0 102278
03:00+16wnw3472100 0.0 102269
06:00+16wnw347689 0.0 102387
09:00+21nnw226354 0.0 1023350
12:00+24n2253100 0.0 10231018
15:00+25ene3351100 0.0 10221258
18:00+23ene1262100 0.0 102285
21:00+20ene2262100 0.0 102211
14 august, sun
sun1400:00+17ese3578100 0.0 102381
03:00+16se347698 0.0 102360
06:00+17se347571 0.0 1023111
09:00+21se3562100 0.0 1023293
12:00+23se455789 0.0 1022559
15:00+24sse4556100 0.0 1021373
18:00+22se3461100 0.0 102162
21:00+22se4760100 0.0 1020130